Regional Weather Roundup
Issued by NWS

Home | Current Version | Previous Version | Text Only | Print | Product List | Glossary On
Versions: 1 2 3 4 5 6 7 8 9 10 11 12 13 14 15 16 17 18 19 20 21 22 23 24 25 26 27 28 29 30 31 32 33 34 35 36 37 38 39 40 41 42 43 44 45 46 47 48 49 50
000
ASUS43 KLMK 201710
RWRKY
KENTUCKY REGIONAL WEATHER ROUNDUP
NATIONAL WEATHER SERVICE LOUISVILLE KY
1200 PM EST MON NOV 20 2017

NOTE "FAIR" INDICATES FEW OR NO CLOUDS BELOW 12,000 FEET
WITH NO SIGNIFICANT WEATHER AND/OR OBSTRUCTIONS TO VISIBILITY.

KYZ001>023-026-027-061>063-070>075-201800-
WESTERN AND SOUTH CENTRAL KENTUCKY

CITY           SKY/WX    TMP DP  RH WIND       PRES   REMARKS
PADUCAH        CLOUDY    47  25  42 SW8       30.21F
HENDERSON      SUNNY     45  26  47 S15       30.20F
OWENSBORO      SUNNY     44  26  49 S13       30.21F
HOPKINSVILLE   SUNNY     45  22  39 S7        30.22F
BOWLING GREEN  SUNNY     45  25  45 S6        30.26F
GLASGOW        SUNNY     45  24  42 S3        30.25F
$$

KYZ024-025-028>034-038-045-046-053-201800-
NORTH CENTRAL KENTUCKY

CITY           SKY/WX    TMP DP  RH WIND       PRES   REMARKS
LOUISVILLE/SDF MOSUNNY   44  25  47 S8        30.23F
LOUISVILLE/LOU SUNNY     43  25  49 S10       30.24F
FORT KNOX      SUNNY     43  24  48 S12       30.22F
$$

KYZ035>037-039>044-047>052-055>060-089>105-201800-
NORTHEAST KENTUCKY

CITY           SKY/WX    TMP DP  RH WIND       PRES   REMARKS
LEXINGTON      SUNNY     42  26  53 S7        30.24F
COVINGTON      PTSUNNY   41  27  57 S9        30.19F
FRANKFORT      SUNNY     43  23  45 S8        30.23F
$$

KYZ054-064>069-076>088-106>120-201800-
SOUTHEAST KENTUCKY

CITY           SKY/WX    TMP DP  RH WIND       PRES   REMARKS
JACKSON        SUNNY     40  26  57 VRB3      30.25F
LONDON         SUNNY     41  24  51 SW6       30.26F
SOMERSET       SUNNY     41  25  52 S3        30.28F
MIDDLESBORO    SUNNY     44  24  46 CALM      30.27F
MONTICELLO     SUNNY     45  24  43 NW8       30.27F
$$





USA.gov is the U.S. government's official web portal to all federal, state and local government web resources and services.